Regional Weather Roundup
Issued by NWS

Home | Current Version | Previous Version | Graphics & Text | Print | Product List | Glossary On
Versions: 1 2 3 4 5 6 7 8 9 10 11 12 13 14 15 16 17 18 19 20 21 22 23 24 25 26 27 28
000
ASUS45 KSLC 192010
RWRUT

UTAH REGIONAL WEATHER ROUNDUP
NATIONAL WEATHER SERVICE SALT LAKE CITY UT
100 PM MST MON FEB 19 2018

UTZ001>011-023>025-192100-

NORTHERN UTAH

CITY           SKY/WX    TMP DP  RH WIND       PRES   REMARKS
BRIGHAM CITY   CLOUDY    27  16  62 N15       29.58S WCI  16
HILL AFB       CLOUDY    24  16  73 NW16      29.53S WCI  10
LOGAN          CLOUDY    27  16  63 N13       29.57S WCI  16
OGDEN          CLOUDY    26  15  63 N12       29.55R WCI  16
SALT LAKE CITY LGT SNOW  29  19  66 N14       29.57R WCI  18
TOOELE VALLEY  LGT SNOW  27  21  80 NW8       29.60S WCI  18
WENDOVER       CLOUDY    30  11  45 MISG      29.61R
HEBER CITY     LGT SNOW  28  19  69 SW7       29.43S WCI  21
WEST JORDAN    CLOUDY    23  21  92 NW13G21   29.57S WCI  11

$$

UTZ011>015-024>027-192100-

CENTRAL/NORTHEAST UTAH

CITY           SKY/WX    TMP DP  RH WIND       PRES   REMARKS
PROVO AIRPORT  FLURRIES  25  20  81 NW24      29.55R WCI   9
MOAB/CANYONLAN CLOUDY   N/A N/A N/A SW31G44   29.36R
DELTA          CLOUDY    25  21  86 NW8       29.57S WCI  16
PRICE          PTSUNNY   36  19  50 W13G20    29.34F WCI  27
ROOSEVELT      PTSUNNY   32  28  86 SE6       29.36F WCI  26
VERNAL         CLOUDY    21  15  78 NE13      29.39S WCI   9

$$

UTZ013>016-019>022-027-192100-

SOUTHERN UTAH

CITY           SKY/WX    TMP DP  RH WIND       PRES   REMARKS
BRYCE CANYON   LGT SNOW  22  15  75 W18G40    29.42S WCI   7
CEDAR CITY     CLOUDY    26  22  84 SE5       29.53F WCI  20
MILFORD        LGT SNOW  26  22  84 NE12      29.55S FOG     WCI  16
ST GEORGE      CLOUDY    37  31  78 S3        29.63F
HANKSVILLE     CLOUDY    43  12  28 SW15      29.41S
BLANDING         N/A     45  19  35 W18G35    29.47F

$$

REGIONAL REPORTS     COLORADO/ARIZONA

CITY           SKY/WX    TMP DP  RH WIND       PRES   REMARKS
CRAIG, CO      HVY SNOW  12   6  77 SW22      29.40R VSB 1/4 WCI  -7
GRAND JUNCTION LGT RAIN  39  35  86 NW30      29.35S WCI  27
RIFLE, CO      LGT RAIN  45  25  45 S18G38    29.30S
MONTROSE, CO   PTSUNNY   48  20  32 SW29G47   29.35F
CORTEZ, CO     PTSUNNY   47  27  45 S33G45    29.44F
COLORADO CITY  SNOW      30  28  93 W13G26    29.62R VSB 1/2 WCI  20
PAGE, AZ       CLOUDY    37  28  70 SW5       29.52S WCI  33
GRAND CANYON   CLOUDY    25  14  63 SW17G29   29.55S WCI  12
KINGMAN, AZ    PTSUNNY   42  10  27 SW16      29.68F
FLAGSTAFF, AZ  LGT SNOW  30  25  81 SW23G47   29.51F VSB 3/4 WCI  17

$$

REGIONAL REPORTS    NEVADA/IDAHO/WYOMING

CITY           SKY/WX    TMP DP  RH WIND       PRES   REMARKS
LAS VEGAS, NV  PTSUNNY   50  -1  12 N15G24    29.68F
ELY, NY        LGT SNOW  20  11  68 NW13G23   29.55F WCI   7
ELKO, NV       MOSUNNY   24   9  52 NW14      29.67R WCI  12
POCATELLO, ID  MOSUNNY   23   8  52 W5        29.63F WCI  17
BURLEY, ID     MOSUNNY   25  18  74 W13G21    29.63F WCI  14
EVANSTON, WY   LGT SNOW  10   5  80 E15       29.43S WCI  -7
ROCK SPRINGS,  SNOW       2  -5  72 NE22G29   29.47F VSB 1/2 WCI -20

$$




USA.gov is the U.S. government's official web portal to all federal, state and local government web resources and services.